Location: Peterborough
(44.3091°N, 78.3197°W)
Time: 17:47:03
(UTC-04:00)

Transit 4A - Pass Details

Date: 25 March 2023
Orbit: 864 x 980 km, 66.8° (Epoch: 04 June)

Event Time Altitude Azimuth Distance (km) Brightness Sun altitude
Rises 17:48:17 0° 315° (NW) 3,582 11.4 17.5°
Reaches altitude 10° 17:51:24 10° 300° (WNW) 2,655 11.1 17.0°
Maximum altitude 17:55:49 21° 254° (WSW) 2,006 12.8 16.2°
Drops below altitude 10° 18:00:18 10° 209° (SSW) 2,693 11.0 15.4°
Sets 18:03:30 0° 193° (SSW) 3,648 11.4 14.8°
